Regional Weather Roundup
Issued by NWS Newport/Morehead, NC

Current Version | Previous Version | Graphics & Text | Print | Product List | Glossary On
Versions: 1 2 3 4 5 6 7 8 9 10 11 12 13 14 15 16 17 18 19 20 21 22 23 24 25 26 27 28 29 30 31 32 33 34 35 36 37 38 39 40 41 42 43 44 45 46 47 48 49 50
000 ASUS42 KMHX 241614 RWRMHX WEATHER ROUNDUP FOR EASTERN NORTH CAROLINA NATIONAL WEATHER SERVICE NEWPORT/MOREHEAD CITY NC 1200 PM EDT THU MAY 24 2018 NOTE: "FAIR" INDICATES FEW OR NO CLOUDS BELOW 12,000 FEET WITH NO SIGNIFICANT WEATHER AND/OR OBSTRUCTIONS TO VISIBILITY NCZ015>017-031-032-045>047-102-103-241700- NORTH COAST CITY SKY/WX TMP DP RH WIND PRES REMARKS EDENTON FAIR 81 61 51 E8 30.18S ELIZABETH CITY FAIR 80 62 54 NE10 30.17S KITTY HAWK FAIR 73 64 73 N7 30.16S MANTEO FAIR 76 62 60 NE13G20 30.18R $$ NCZ045>047-081-094-103-104-241700- CENTRAL COAST CITY SKY/WX TMP DP RH WIND PRES REMARKS FRISCO FAIR 79 66 64 NE6 30.16R $$ NCZ095-097-098-100-101-241700- SOUTHERN COAST CITY SKY/WX TMP DP RH WIND PRES REMARKS BEAUFORT FAIR 80 67 64 E7 30.15S CEDAR ISLAND NOT AVBL JACKSONVILLE FAIR 82 70 66 E10 30.14F PINEY ISLAND NOT AVBL WILMINGTON FAIR 76 72 87 NE7 30.14S $$ NCZ011>013-027>030-043-044-078>080-089-090>093-098-241700- COASTAL PLAIN CITY SKY/WX TMP DP RH WIND PRES REMARKS AHOSKIE FAIR 78 60 53 N5 30.18F CLINTON FAIR 79 73 81 E3 30.16S ELIZABETHTOWN CLOUDY 76 73 90 E3 30.15F GOLDSBORO FAIR 81 65 59 NE10 30.15F GREENVILLE FAIR 81 64 57 E6 30.18F HAVELOCK NOT AVBL KENANSVILLE CLOUDY 79 68 69 E6 30.16S KINSTON MOSUNNY 81 64 57 NE7 30.17S NEW BERN FAIR 79 65 62 SE3 30.17S RICHLANDS PTSUNNY 80 69 69 E12 30.16S ROCKY MOUNT PTSUNNY 82 65 56 VRB3 30.18S WASHINGTON PTSUNNY 81 63 55 CALM 30.17F WHITEVILLE PTSUNNY 76 70 81 E6 30.14F $$ AMZ130-135-150-152-154-156-158-170-250-252-270-ANZ085-086-088-633-658-670-241700- MARINE OBSERVATIONS STATION/POSITION TIME TEMP WIND PRES WAVE SWELL AIR SEA DIR/SP/G HT/PER HT/PER (UTC) (F) (DEG/KT/KT) (MB) (FT/S) (FT/S) CHESAPEAKE LIGHT NOT AVBL 64 E VA BEACH 1550 68 68 360/ 8/ 10 1021.9 2/ 8 2/ 8 DUCK 1548 70 62 360/ 6/ 6 1021.5 2 E DUCK 1600 70 N/A 1/ 8 OREGON INLET 1542 72 72 20/ 10/ 12 1021.4 13E OREGON INLT 1548 69 N/A 2/ 8 2/ 8 HATTERAS CG 1548 76 75 50/ 8/ 12 1021.2 DIAMOND BUOY 1600 72 75 20/ 12/ 14 1021.5 CAPE LOOKOUT 1600 50/ 8/ 9 1021.5 BEAUFORT LAB 1548 78 77 110/ 5/ 12 1021.3 30 SE NEW RVR IN 1508 74 360/ 8/ 10 1021.2 30 SE NEW RVR IN 1600 76 N/A 3/ 8 27 SE WRIGHTSVLE 1508 73 75 340/ 8/ 12 1021.0 5 SE WRIGHTSVLE 1508 70 73 320/ 4/ 6 1020.5 225 S CAPE HAT 1550 78 280/ 6/ 8 1020.7 3/ 9 2/ 9 41 SE CHARLESTON 1550 75 180/ 4/ 4 1020.4 3/ 8 3/ 8 $$

USA.gov is the U.S. government's official web portal to all federal, state and local government web resources and services.